Find Yaogan Weixing 11

NORAD ID: 37165 Int'l Des: 2010-047 Owner: ZZB Country: CN Constellation: yaogan operational
LEOCIRCULARRETROGRADE

リアルタイム位置

3D地球を読み込み中...

Yaogan Weixing 11について

説明を読み込み中...

次回通過

Passes for default location (London). Set your location on the main map for personalized predictions.

高度履歴

Loading altitude history...

軌道要素

1 37165U 10047A 26104.58528189 .00000464 00000-0 65349-4 0 9998
2 37165 98.3947 327.6626 0036046 86.7157 273.8178 14.81985069838678
Epoch: Apr 14, 2026 • Age: 9 hours

現在のステータス

高度 617.2 km
速度 7.56 km/s
衛星直下点 24.71°N, 33.84°W
打ち上げ日 Sep 22, 2010
運用期間 15.5 years
タイプ military

技術仕様

分類 Payload
質量 800.00 kg
乾燥質量 800.00 kg
総質量 800.00 kg
長さ 2.00 m
直径 1.50 m
スパン 4.00 m
形状 Box + 2 Pan
製造者 DFHZ
バスタイプ CAST-2000
フェーズステータス In Orbit
所有者/国 ZZB/CN

Most Searched